Regional Weather Roundup
Issued by NWS Northern Indiana

Home | Current Version | Previous Version | Text Only | Print | Product List | Glossary Off
Versions: 1 2 3 4 5 6 7 8 9 10 11 12 13 14 15 16 17 18 19 20 21 22 23 24 25 26 27 28 29 30 31 32 33 34 35 36 37 38 39 40 41 42 43 44 45 46 47 48 49 50

000
ASUS43 KIWX 250501
RWRIWX

KIWX WEATHER ROUNDUP
NATIONAL WEATHER SERVICE NORTHERN INDIANA
100 AM EDT MON SEP 25 2017

NOTE: "FAIR" INDICATES FEW OR NO CLOUDS BELOW 12,000 FEET WITH NO
SIGNIFICANT WEATHER AND/OR OBSTRUCTIONS TO VISIBILITY.

* THESE STATIONS ARE NOT UNDER NWS QUALITY CONTROL. THEY ALSO MAY NOT
  REPORT WEATHER SUCH AS PRECIPITATION OR FOG.

INZ001>027-250600-
NORTHERN INDIANA

CITY           SKY/WX    TMP DP  RH WIND       PRES   REMARKS
MICHIGAN CITY* CLEAR     63  61  94 CALM      30.03F
SOUTH BEND     CLEAR     65  60  84 CALM      30.04F
GOSHEN         CLEAR     67  58  72 E5        30.05S
FORT WAYNE     PTCLDY    66  58  75 CALM      30.05F
PERU/GRISSOM   CLOUDY    68  56  65 E6        30.03S

$$
INZ028>050-250600-
CENTRAL INDIANA

CITY           SKY/WX    TMP DP  RH WIND       PRES   REMARKS
LAFAYETTE      CLEAR     67  59  75 CALM      30.02S
KOKOMO*        CLOUDY    65  59  81 CALM      30.05S
MUNCIE*        PTCLDY    61  57  87 CALM      30.06S
INDIANAPOLIS   PTCLDY    71  57  61 E5        30.04S

$$
MIZ043>046-050>051-056>058-064>065-071>073-077>080-250600-
SOUTHWEST LOWER MICHIGAN

CITY           SKY/WX    TMP DP  RH WIND       PRES   REMARKS
BATTLE CREEK   CLEAR     71  62  73 SE5       30.08S
BENTON HARBOR  CLEAR     64  60  87 CALM      30.03S
COLDWATER*     PTCLDY    70  64  81 SE6       30.07F
HILLSDALE*     MOCLDY    68  63  83 E5        30.08F
HOLLAND        CLEAR     64  58  80 CALM      30.05S
GRAND RAPIDS   CLEAR     70  60  70 S7        30.06S
KALAMAZOO      CLEAR     71  59  65 CALM      30.07S
STURGIS*       PTCLDY    70  63  78 SE5       30.06S
THREE RIVERS*  FAIR      68  61  78 CALM      30.07S

$$
OHZ001>008-015>018-024>025-250600-
NORTHWEST OHIO

CITY           SKY/WX    TMP DP  RH WIND       PRES   REMARKS
DEFIANCE       PTCLDY    70  64  81 E3        30.06F
FINDLAY        CLEAR     72  65  78 E3        30.06F
TOLEDO EXPRESS PTCLDY    70  68  93 CALM      30.07S
TOLEDO METCALF PTCLDY    70  67  90 E3        30.07F
LIMA           CLEAR     65  60  84 CALM      30.07F

$$
AND FOR LAKE MICHIGAN COASTAL AND OPEN LAKE BUOY OBSERVATIONS

STATION/POSITION TEMP    WIND        PRES    VSBY  WAVE
                 AIR SEA DIR/SP/G                  HT/PER
                 (F)     (DEG/KT/KT) (MB)    (MI)  (FT/S)
CALUMET HARBOR    76     170/  2/  3 1015.6S
MICHIGAN CITY     74     130/  7/  8   N/A
BURNS HARBOR      79     140/  9/ 13 1016.9S
SAINT JOSEPH      73      CALM  /  1 1017.3
SOUTH LAKE BUOY   74 71   90/  8/ 10 1016.3          0
4 MI NW BRIDGMAN  74 72  150/  6/  8 1016.3F         0
MICHIGAN CITY     73 72  150/  6/  8   N/A           0

$$
&&




USA.gov is the U.S. government's official web portal to all federal, state and local government web resources and services.